Location: Ago
(8.4667°N, 4.4167°E)
Time: 14:01:51
(UTC+00:00)

Milstar 3 Cent rocket - Pass Details

Date: 06 June 2020
Orbit: 706 x 5147 km, 28.3° (Epoch: 12 July)

Event Time Altitude Azimuth Distance (km) Brightness Sun altitude
Rises 19:42:06 0° 274° (W) 3,281 6.3 -23.7°
Reaches altitude 10° 19:44:23 10° 285° (WNW) 2,543 5.7 -24.2°
Maximum altitude 19:49:39 32° 349° (N) 1,939 4.3 -25.3°
Drops below altitude 10° 19:58:41 10° 49° (NE) 4,415 5.7 -27.3°
Sets 20:04:14 0° 58° (ENE) 6,207 6.4 -28.4°
